Погода в Угуте

Погода в Угуте : погода сейчас, прогноз погоды и архив. Всё, что Вы хотите узнать о погоде в Угуте!

Поиск расширенной информации на нашем сайте:

Другие новости

Новости СМИ2

Главная страница сайта

Новости сайта

03.07.2017

Напоминаем, что на нашем специализированном сайте Метеоцентр.Азия вы можете получить высокодетализированные автоматические прогнозы погоды по пунктам России, СНГ и мира в авиационном формате (включающие направление и скорость ветра, видимость, явления погоды, количество и форму облачности, нижнюю и верхнюю границу облачности).

Рекомендуем: строительство каркасных домов Екатеринбург

Погода в Угуте - сегодня

Время (UTC), дата Ветер
(°,м/с) 
Видим.   Явления Облачность Т
(°С)
Тd
(°С)
f(%) Тe
(°С)
Pmin
(гПа)
dP
(гПа)
Po
(мм)
O2
(г/м3)
Тmin Tmax R s Состояние
почвы
21 15.10.17 330 (СЗ) 10 км    8/0 средняя, верхняя 
[Ac trans|Ci fib]
-2.8 -4 91 -2  1015  0.8  756  308           
00 16.10.17 330 (СЗ) 10 км    10/0 средняя 
[Ac und]
-0.4 -2.1 88 1016.1  1.2  757  306           
03 16.10.17 340 (С) 4000 м  дымка  10/10 300 м 
[St]
+0.7 -0.4 92 +1  1018.2  2.1  759  305  -3.5         
06 16.10.17 010 (С) 10 км  {морось}  10/10 300 м 
[St]
+1.8 -0.9 82 1020  1.8  760  304           
09 16.10.17 010 (С) 10 км  {морось}  10/10 1000 м 
[Sc]
+2.6 -2.1 71 +2  1021.5  1.5  761  304           
12 16.10.17 350 (С) 10 км  {морось}  10/10 1000 м 
[Sc]
+1.5 -2.8 73 +1  1023.5  763  306           
15 16.10.17 050 (СВ) 10 км    10/10 1000 м 
[Sc]
+0 -3.4 78 +1  1025.2  1.6  764  308    +2.9  0.0     
18 16.10.17 050 (СВ) 10 км    8/8 1000 м 
[Sc]
-0.9 -3.7 81 1026.3  1.1  765  310           
21 16.10.17 тихо ()   10 км    8/4 1000 м средняя 
[Sc|Ac trans]
-1.1 -4 81 -1  1026.7  0.4  765  310           
00 17.10.17 100 (В) 10 км    10/0 средняя 
[Ac und]
-1.2 -4.1 81 -1  1026.5  -0.1  765  310           
03 17.10.17 120 (ЮВ) 10 км    10/0 средняя 
[Ac und]
-0.9 -3.7 81 1026.9  0.3  765  310  -1.2         
06 17.10.17 090 (В) 10 км    10/0 средняя 
[Ac und]
+0.3 -3.6 75 +1  1025.7  -1.2  764  308           
09 17.10.17 140 (ЮВ) 10 км    10/0 верхняя 
[Cs]
+2.3 -2.1 73 +2  1024.1  -1.5  763  305           
12 17.10.17 130 (ЮВ) 10 км    9/0 средняя, верхняя 
[Ac lent|Ci fib]
+0.9 -2.2 80 1022.8  -1.3  762  306           
15 17.10.17 140 (ЮВ) 10 км    3/0 верхняя 
[Ci fib]
-0.7 -2.4 88 1021.5  -1.4  761  308    +2.5       
18 17.10.17 150 (ЮВ) 10 км    8/8 1000 м 
[Sc]
-1.4 -3.1 88 -1  1020  -1.5  760  308           
21 17.10.17 130 (ЮВ) 10 км    10/0 верхняя 
[Cs]
-2.1 -3.3 91 -2  1017.9  -2.1  759  308           
00 18.10.17 160 (Ю) 10 км    10/10 600 м кучево-дожд. 
[Cb cap]
-1.9 -2.9 93 -3  1016.6  -1.2  758  308           
03 18.10.17 150 (ЮВ) 10 км    10/10 600 м кучево-дожд. 
[Cb cap]
+0 -1.2 92 +1  1014.4  -2.2  756  305  -2.5         
06 18.10.17 130 (ЮВ) 10 км    10/10 600 м кучево-дожд. 
[Cb cap]
+1.4 -0.4 88 +1  1013.2  -1.1  755  303           
09 18.10.17 140 (ЮВ) 10 км    8/6 600 м кучево-дожд., верхняя 
[Cb cap|Ci fib]
+2.8 -0.2 81 +2  1010.5  -2.7  753  300           
12 18.10.17 130 (ЮВ) 10 км    10/4 300 м кучево-дожд., средняя, верхняя 
[Cb cap|Ac trans|Cs]
+1.4 -0.8 85 +1  1009  -1.5  752  302           
15 18.10.17 130 (ЮВ) 10 км    9/3 1000 м средняя, верхняя 
[Sc|Ac trans|Ci fib]
+0.5 -1.3 88 1008.6  -0.4  752  303    +3.6       
18 18.10.17 150 (ЮВ) 10 км    6/0 средняя, верхняя 
[Ac trans|Ci fib]
+0 -1.8 88 -1  1007.5  -1.1  751  303           
21 18.10.17 160 (Ю) 10 км    8/8 600 м кучево-дожд. 
[Cb cap]
-0.1 -1.7 89 -1  1006.7  -0.8  750  303           
Время (UTC), дата Ветер
(°,м/с) 
Видим.   Явления Облачность Т
(°С)
Тd
(°С)
f(%) Тe
(°С)
Pmin
(гПа)
dP
(гПа)
Po
(мм)
O2
(г/м3)
Тmin Tmax R s Состояние
почвы

Для получения пояснительной информации подведите курсор к названию столбца.

ПОГОДА в Угуте - архив

Всё, что Вы хотите узнать о погоде в Угуте - удобно и подробно!

Выберите нужную дату (начиная с 1 января 2015* года) и нажмите кнопку "Найти".
Будут отображены архивные сводки погоды по пункту Угут, начиная с указанной даты.


Отображать данные в формате CSV (для использования в таблицах Excel)


Внимание! Наш архив погоды предназначен исключительно для личного некоммерческого использования в познавательных целях. Если Вам необходимы официальные справки о состоянии погоды (для производственных, юридических, коммерческих и т.п. целей), обращайтесь в органы Росгидромета.

*Примечание: данная дата относится к архиву по метеостанциям СССР (Россия, СНГ, Балтия).
Архив по метеостанциям Зарубежной Европы и Азии (кроме Китая) хранится 10 дней, по другим регионам земного шара (Китай, Африка, Америка, Австралия, Океания) - 1 день.

Угут - район местоположения метеостанции


Название, широта, долгота, высота метеостанции:
Угут 60.5°ш. 74°д. 48 м над ур. моря [Российская Федерация]

Дополнительная информация

В oтличие oт бoльшинства пoгoдных сайтoв мы публикуем пoдрoбную метеoинфoрмацию в детальнoм прoфессиoнальнoм фoрмате.

Характеристики температуры и влажнoсти вoздуха измеряются на высoте 2 м в тени вдали oт зданий и деревьев.
Скoрoсть ветра измеряется на высoте 10 м (на урoвне рoста челoвека скoрoсть ветра ниже в 1.5-2 раза). Если метеoстанция нахoдится в гoрoде или в лесу, тo скoрoсть ветра занижена на 2-4 м/с пo сравнению с oткрытым местoм. Скoрoсть ветра над акватoриями крупных рек и oзёр, а также на вершинах хoлмoв на 2-5 м/с выше, чем в oбычных услoвиях.
Атмoсфернoе давление в разных тoчках местнoсти мoжет значительнo oтличаться oт давления на метеoстанции, в зависимoсти oт услoвий рельефа (при пoдъёме на 10 м давление пoнижается примернo на 1 мм рт.ст.).